Flight Track Log - Related Links

Times and Time Zones

All times are in EDT time to prevent confusion due to time zone crossing. See the JBU56 flight status page for this flight to view local times or setup timezone preferences in your user account.

Time Position Orientation Groundspeed Altitude Reporting Facility
EDT Latitude Longitude Course Direction KTS MPH feet Rate Location/Type
Tue 08:40:30 AM 38.9667 -77.5167 57° Northeast 179 206 2,200  Level Potomac TRACON
Tue 08:41:30 AM 39.0167 -77.5667 322° Northwest 242 278 4,700 2,400 Climbing Potomac TRACON
Tue 08:42:30 AM 39.1000 -77.5500 North 307 353 7,000 2,579 Climbing Potomac TRACON
Tue 08:43:00 AM 39.0371 -76.9107 78° East  Level FlightAware Approximate
Tue 08:43:24 AM 39.1667 -77.4833 38° Northeast 344 396 9,600  Level Potomac TRACON
Tue 08:44:00 AM 39.0606 -76.7702 78° East  Level FlightAware Approximate
Tue 08:44:25 AM 39.1833 -77.3667 80° East 334 384 10,000  Level Potomac TRACON
Tue 08:45:00 AM 39.0832 -76.6336 57° Northeast  Level FlightAware Approximate
Tue 08:45:25 AM 39.1667 -77.2667 102° East 305 351 10,500  Level Potomac TRACON
Tue 08:46:19 AM 39.1333 -77.1667 113° Southeast 308 354 13,300 2,727 Climbing Potomac TRACON
Tue 08:47:15 AM 39.1125 -77.0897 109° East 304 350 15,500 2,276 Climbing Washington Center
Tue 08:48:15 AM 39.0889 -76.9742 105° East 321 369 17,700 1,780 Climbing Washington Center
Tue 08:49:13 AM 39.0986 -76.8433 84° East 334 384 19,000 1,613 Climbing Washington Center
Tue 08:50:14 AM 39.1083 -76.7125 84° East 346 398 20,900 1,785 Climbing Washington Center
Tue 08:51:14 AM 39.1219 -76.5789 82° East 358 412 22,600 1,033 Climbing Washington Center
Tue 08:52:16 AM 39.1333 -76.4319 84° East 388 447 23,000 197 Climbing Washington Center
Tue 08:53:16 AM 39.1469 -76.2742 84° East 414 476 23,000  Level Washington Center
Tue 08:54:15 AM 39.1644 -76.1164 82° East 433 498 23,000  Level Washington Center
Tue 08:55:15 AM 39.1836 -75.9583 81° East 444 511 23,000 50 Level Washington Center
Tue 08:56:15 AM 39.2425 -75.8139 62° Northeast 444 511 23,100 893 Climbing Washington Center
Tue 08:57:16 AM 39.3364 -75.6936 45° Northeast 450 518 24,800 1,636 Climbing Washington Center
Tue 08:58:16 AM 39.4322 -75.5700 45° Northeast 463 533 26,400 1,424 Climbing Washington Center
Tue 08:59:14 AM 39.5300 -75.4464 44° Northeast 477 549 27,600 1,265 Climbing Washington Center
Tue 09:01:02 AM 39.7092 -75.2044 46° Northeast 504 580 29,900 1,214 Climbing New York Center
Tue 09:02:02 AM 39.7931 -75.0800 49° Northeast 510 587 31,000 550 Climbing New York Center
Tue 09:03:02 AM 39.9006 -74.9297 47° Northeast 510 587 31,000  Level New York Center
Tue 09:04:02 AM 39.9839 -74.8100 48° Northeast 510 587 31,000  Level New York Center
Tue 09:05:02 AM 40.0783 -74.6719 48° Northeast 505 581 31,000 -550 Level New York Center
Tue 09:06:02 AM 40.1703 -74.5303 50° Northeast 505 581 29,900 -1,300 Descending New York Center
Tue 09:07:02 AM 40.2603 -74.3856 51° Northeast 500 575 28,400 -1,450 Descending New York Center
Tue 09:08:02 AM 40.3478 -74.2514 49° Northeast 500 575 27,000 -538 Descending New York Center
Tue 09:09:38 AM 40.4819 -74.0428 50° Northeast 487 560 27,000  Level Boston Center
Tue 09:10:39 AM 40.5706 -73.9044 50° Northeast 488 562 27,000  Level Boston Center
Tue 09:11:40 AM 40.6556 -73.7675 51° Northeast 485 558 27,000  Level Boston Center
Tue 09:12:41 AM 40.7589 -73.6036 50° Northeast 486 559 27,000  Level Boston Center
Tue 09:13:42 AM 40.8439 -73.4669 51° Northeast 485 558 27,000 -787 Level Boston Center
Tue 09:14:43 AM 40.9314 -73.3353 49° Northeast 478 550 25,400 -1,918 Descending Boston Center
Tue 09:15:44 AM 41.0103 -73.2194 48° Northeast 473 544 23,100 -1,180 Descending Boston Center
Tue 09:16:45 AM 41.1000 -73.0861 48° Northeast 480 552 23,000 -49 Descending Boston Center
Tue 09:17:46 AM 41.1686 -72.9489 56° Northeast 446 513 23,000  Level Boston Center
Tue 09:18:47 AM 41.2236 -72.8172 61° Northeast 412 474 23,000  Level Boston Center
Tue 09:19:48 AM 41.2853 -72.6669 61° Northeast 411 473 23,000  Level Boston Center
Tue 09:20:49 AM 41.3403 -72.5347 61° Northeast 410 472 23,000  Level Boston Center
Tue 09:21:50 AM 41.3947 -72.3992 62° Northeast 410 472 23,000  Level Boston Center
Tue 09:22:51 AM 41.4494 -72.2658 61° Northeast 410 472 23,000 -689 Level Boston Center
Tue 09:23:52 AM 41.5031 -72.1319 62° Northeast 410 472 21,600 -1,525 Descending Boston Center
Tue 09:24:53 AM 41.5578 -71.9919 62° Northeast 403 464 19,900 -1,820 Descending Boston Center
Tue 09:25:54 AM 41.6014 -71.8497 68° East 389 448 17,900 -1,736 Descending Boston Center
Tue 09:26:54 AM 41.6397 -71.7194 68° East 380 437 16,400 -1,636 Descending Boston Center
Tue 09:27:55 AM 41.6753 -71.5950 69° East 369 425 14,600 -1,623 Descending Boston Center
Tue 09:28:56 AM 41.7144 -71.4639 68° East 359 413 13,100 -1,525 Descending Boston Center
Tue 09:29:57 AM 41.7072 -71.3547 95° East 304 350 11,500 -1,033 Descending Boston Center
Tue 09:30:58 AM 41.6572 -71.3883 207° Southwest 253 291 11,000 -246 Descending Boston Center
Tue 09:31:59 AM 41.7208 -71.4500 324° Northwest 334 384 11,000  Level Boston Center
Tue 09:33:00 AM 41.7806 -71.3597 48° Northeast 339 390 11,000  Level Boston Center
Tue 09:34:01 AM 41.8197 -71.2367 67° East 333 383 11,000  Level Boston Center
Tue 09:35:02 AM 41.8572 -71.1217 66° East 334 384 11,000  Level Boston Center
Tue 09:36:02 AM 41.9039 -71.0114 60° Northeast 341 392 11,000  Level Boston Center
Tue 09:37:03 AM 41.9514 -70.9011 60° Northeast 341 392 11,000 -148 Level Boston Center
Tue 09:38:04 AM 41.9994 -70.7897 60° Northeast 340 391 10,700 -885 Descending Boston Center
Tue 09:39:05 AM 42.0586 -70.6911 51° Northeast 339 390 9,200 -1,475 Descending Boston Center
Tue 09:40:06 AM 42.1267 -70.6119 41° Northeast 331 381 7,700 -1,377 Descending Boston Center
Tue 09:41:07 AM 42.2150 -70.5858 12° North 329 379 6,400 -1,230 Descending Boston Center
Tue 09:42:08 AM 42.3019 -70.5622 11° North 322 371 5,200 -689 Descending Boston Center
Tue 09:43:09 AM 42.3708 -70.6131 331° Northwest 297 342 5,000 -98 Descending Boston Center
Tue 09:44:10 AM 42.4222 -70.6833 315° West 270 311 5,000  Level Boston Center
Tue 09:45:10 AM 42.4656 -70.7389 317° Northwest 225 259 5,000  Level Boston Center
Tue 09:46:11 AM 42.5061 -70.7964 314° West 215 247 5,000  Level Boston Center
Tue 09:47:12 AM 42.5700 -70.7997 358° North 249 287 5,000  Level Boston Center
Tue 09:48:13 AM 42.6381 -70.7664 20° North 240 276 5,000 -98 Level Boston Center
Tue 09:49:14 AM 42.6983 -70.7369 20° North 235 270 4,800 -492 Descending Boston Center
Tue 09:50:15 AM 42.7411 -70.7778 325° Northwest 183 211 4,000 -393 Descending Boston Center
Tue 09:51:16 AM 42.7258 -70.8233 245° Southwest 135 155 4,000  Level Boston Center
Tue 09:52:17 AM 42.6967 -70.8447 208° Southwest 121 139 4,000  Level Boston Center
Tue 09:53:18 AM 42.6644 -70.8594 199° South 121 139 4,000  Level Boston Center
Tue 09:54:18 AM 42.6331 -70.8753 200° South 121 139 4,000  Level Boston Center
Tue 09:55:19 AM 42.6014 -70.8908 200° South 121 139 4,000  Level Boston Center
Tue 09:56:20 AM 42.5650 -70.9072 198° South 126 145 4,000 -295 Level Boston Center
Tue 09:57:21 AM 42.5322 -70.9250 202° Southwest 129 148 3,400 -590 Descending Boston Center
Tue 09:58:22 AM 42.5019 -70.9386 198° South 119 137 2,800 -639 Descending Boston Center
Tue 09:59:23 AM 42.4711 -70.9544 201° Southwest 119 137 2,100 -689 Descending Boston Center
Tue 10:00:24 AM 42.4397 -70.9697 200° South 119 137 1,400 -639 Descending Boston Center
Tue 10:01:25 AM 42.4094 -70.9839 199° South 111 128 800 -492 Descending Boston Center
Tue 10:02:26 AM 42.3814 -70.9975 200° South 110 127 400 -393 Descending Boston Center

Login

Don't have an account? Register now (free) for customized features, flight alerts, and more!